Powrót do katalogu

AMOS 17

AktywnyŁącznośćGEO
NORAD 44479·PAYLOAD·🇮🇱 Israel

Wystrzelony Aug 6, 2019 z Cape Canaveral Space Force Station

Loading…

TLE

ŚwieżeSource: Space-Track

Epoka: Sep 14, 2026, 13:53 UTC

1 44479U 19050A   26257.57848103  .00000101  00000-0  00000-0 0  9993
2 44479   0.0391   2.2972 0002113 171.9596  44.5772  1.00270328 26088

Śledź AMOS 17 w czasie rzeczywistym z AllMySat

Download on the App Store